Temporada 2023 · Ronda 2

Saudi Arabian Grand Prix

2023-03-19 · Jeddah Corniche Circuito · Saudi Arabia · Saudi Arabian Grand Prix · 50Lap · 308.450km
Red Bull 1:21:14.894
Victoria de equipo 44pt P1 · P2 1-2
Red Bull +5.355
Vuelta rápida
1:31.906 · L50
Abandono
2
Alexander Albon L27 Lance Stroll L16
Clima
26°/32°
media aire/pista · seco · humedad 58%
Coche de seguridad
1
desplegado en la vuelta L18
Uso de neumáticos Dirección de carrera
Storylines · This Grand Prix & circuit
Most SC/VSC · all-time P31
Final más ajustado · all-time P47
Circuito Info
Jeddah Corniche Circuito Jeddah, Saudi Arabia
50Lap 308.450km 5 carreras held (2021–) Récord de vuelta 1:30.734 · Lewis Hamilton (2021)
Récords Watch · Active drivers ranked at this Grand Prix
P1 Max Verstappen 2 victorias · GP #1
P2 Lewis Hamilton 1 victorias · → Max Verstappen -1
P2 Oscar Piastri 1 victorias · → Max Verstappen -1
P1 Sergio Pérez 2 · GP #1
P1 Max Verstappen 2 · GP #1
P1 Fernando Alonso 5 salidas · GP #1
P1 Pierre Gasly 5 salidas · GP #1
P1 Lewis Hamilton 5 salidas · GP #1
Carrera Trace · position by lap
SC · vueltas 18–20 salida parada SG 1 5 9 13 17 21 25 29 33 37 41 45 49 FIN Pérez · parada en boxes L18 Pérez PER Pérez PER Verstappen · parada en boxes L18 Verstappen VER Verstappen VER Alonso · parada en boxes L18 · sanción cumplida Alonso · +10s sumado tras la carrera Alonso ALO Alonso ALO Russell · parada en boxes L18 Russell RUS Russell RUS Hamilton · parada en boxes L18 Hamilton HAM Hamilton HAM Sainz · parada en boxes L15 Sainz SAI Sainz SAI Leclerc · parada en boxes L16 Leclerc LEC Leclerc LEC Ocon · parada en boxes L16 Ocon OCO Ocon OCO Gasly · parada en boxes L14 Gasly GAS Gasly GAS Magnussen · parada en boxes L8 Magnussen MAG Magnussen MAG Tsunoda · parada en boxes L17 Tsunoda TSU Tsunoda TSU Hülkenberg · parada en boxes L11 Hülkenberg HUL Hülkenberg HUL Zhou · parada en boxes L11 Zhou · parada en boxes L18 Zhou ZHO Zhou ZHO de Vries · parada en boxes L17 de Vries DEV de Vries DEV Piastri · parada en boxes L1 Piastri PIA Piastri PIA Sargeant · parada en boxes L18 Sargeant SAR Sargeant SAR Norris · parada en boxes L2 Norris · parada en boxes L19 Norris NOR Norris NOR Bottas · parada en boxes L9 Bottas · parada en boxes L17 Bottas · parada en boxes L35 Bottas BOT Bottas BOT Albon · parada en boxes L17 Albon · abandono L27 Albon ALB Albon ALB Stroll · parada en boxes L13 Stroll · abandono L16 Stroll STR Stroll STR
SC·VSC parada en boxes sanción cumplida en boxes SG Parrilla de salida FIN clasificación oficial sanción sumada tras la carrera coche detenido posición en cada vuelta (desde 1996)
PosPilotoTeamParrillaVueltaTiempo / EstadoPuntos
1 11 Sergio Pérez Red Bull 1 50 1:21:14.894 25
2 1 Max Verstappen FL Red Bull 15 50 +5.355 19
3 14 Fernando Alonso Aston Martin 2 50 +20.728 15
4 63 George Russell Mercedes 3 50 +25.866 12
5 44 Lewis Hamilton Mercedes 7 50 +31.065 10
6 55 Carlos Sainz Ferrari 4 50 +35.876 8
7 16 Charles Leclerc Ferrari 12 50 +43.162 6
8 31 Esteban Ocon Alpine F1 Team 6 50 +52.832 4
9 10 Pierre Gasly Alpine F1 Team 9 50 +54.747 2
10 20 Kevin Magnussen Haas F1 Team 13 50 +1:04.826 1
11 22 Yuki Tsunoda AlphaTauri 16 50 +1:07.494
12 27 Nico Hülkenberg Haas F1 Team 10 50 +1:10.588
13 24 Guanyu Zhou Alfa Romeo 11 50 +1:16.060
14 21 Nyck de Vries AlphaTauri 18 50 +1:17.478
15 81 Oscar Piastri McLaren 8 50 +1:25.021
16 2 Logan Sargeant Williams 20 50 +1:26.293
17 4 Lando Norris McLaren 19 50 +1:26.445
18 77 Valtteri Bottas Alfa Romeo 14 49 +29.584
R 23 Alexander Albon Williams 17 27 Retired
R 18 Lance Stroll Aston Martin 5 16 Retired
PosPilotoTeamQ1Q2Q3Diferencia con la pole
1 11 Sergio Pérez Red Bull 1:29.244 1:28.635 1:28.265 POLE Q3
2 16 Charles Leclerc Ferrari 1:29.376 1:28.903 1:28.420 +0.155 Q3
3 14 Fernando Alonso Aston Martin 1:29.298 1:28.757 1:28.730 +0.465 Q3
4 63 George Russell Mercedes 1:29.592 1:29.132 1:28.857 +0.592 Q3
5 55 Carlos Sainz Ferrari 1:29.411 1:28.957 1:28.931 +0.666 Q3
6 18 Lance Stroll Aston Martin 1:29.335 1:28.962 1:28.945 +0.680 Q3
7 31 Esteban Ocon Alpine F1 Team 1:29.707 1:29.255 1:29.078 +0.813 Q3
8 44 Lewis Hamilton Mercedes 1:29.689 1:29.374 1:29.223 +0.958 Q3
9 81 Oscar Piastri McLaren 1:29.706 1:29.378 1:29.243 +0.978 Q3
10 10 Pierre Gasly Alpine F1 Team 1:29.890 1:29.411 1:29.357 +1.092 Q3
11 27 Nico Hülkenberg Haas F1 Team 1:29.547 1:29.451 +1.186 Q2
12 24 Guanyu Zhou Alfa Romeo 1:29.654 1:29.461 +1.196 Q2
13 20 Kevin Magnussen Haas F1 Team 1:29.744 1:29.634 +1.369 Q2
14 77 Valtteri Bottas Alfa Romeo 1:29.929 1:29.668 +1.403 Q2
15 1 Max Verstappen Red Bull 1:28.761 1:49.953 +0.496 Q1
16 22 Yuki Tsunoda AlphaTauri 1:29.939 +1.674 Q1
17 23 Alexander Albon Williams 1:29.994 +1.729 Q1
18 21 Nyck de Vries AlphaTauri 1:30.244 +1.979 Q1
19 4 Lando Norris McLaren 1:30.447 +2.182 Q1
20 2 Logan Sargeant Williams 2:08.510 +40.245 Q1
Parrilla de salida
Oficial
2
14 Fernando Alonso ▲1
3
63 George Russell ▲1
4
55 Carlos Sainz ▲1
5
18 Lance Stroll ▲1
6
31 Esteban Ocon ▲1
7
44 Lewis Hamilton ▲1
8
81 Oscar Piastri ▲1
9
10 Pierre Gasly ▲1
10
11
24 Guanyu Zhou ▲1
12
16 Charles Leclerc ▼10
16
Final grid as clasificado, including any desde el pit lane salidas. Source: Jolpica-F1. The arrow compares the grid slot with the clasificación classification; hover a drop to see the stewards document behind it.
No hay datos de esta sesión.
PosPilotoMejor vueltaDiferenciaVueltas
1 1 Max Verstappen 1:29.617 18
2 11 Sergio Pérez 1:30.100 +0.483 20
3 14 Fernando Alonso 1:30.315 +0.698 22
4 18 Lance Stroll 1:30.577 +0.960 20
5 63 George Russell 1:30.771 +1.154 26
6 44 Lewis Hamilton 1:30.787 +1.170 26
7 55 Carlos Sainz 1:30.924 +1.307 23
8 10 Pierre Gasly 1:30.949 +1.332 24
9 23 Alexander Albon 1:31.030 +1.413 23
10 22 Yuki Tsunoda 1:31.110 +1.493 25
11 16 Charles Leclerc 1:31.118 +1.501 26
12 31 Esteban Ocon 1:31.181 +1.564 22
13 21 Nyck de Vries 1:31.450 +1.833 29
14 81 Oscar Piastri 1:31.491 +1.874 24
15 27 Nico Hülkenberg 1:31.552 +1.935 22
16 20 Kevin Magnussen 1:31.566 +1.949 23
17 2 Logan Sargeant 1:31.922 +2.305 26
18 77 Valtteri Bottas 1:31.970 +2.353 25
19 24 Guanyu Zhou 1:31.986 +2.369 22
20 4 Lando Norris 1:32.149 +2.532 21
Classified by best lap · source OpenF1 (2023+)
PosPilotoMejor vueltaDiferenciaVueltas
1 1 Max Verstappen 1:29.603 29
2 14 Fernando Alonso 1:29.811 +0.208 26
3 11 Sergio Pérez 1:29.902 +0.299 26
4 31 Esteban Ocon 1:30.039 +0.436 27
5 63 George Russell 1:30.070 +0.467 27
6 10 Pierre Gasly 1:30.100 +0.497 28
7 18 Lance Stroll 1:30.110 +0.507 27
8 27 Nico Hülkenberg 1:30.181 +0.578 27
9 16 Charles Leclerc 1:30.341 +0.738 28
10 55 Carlos Sainz 1:30.592 +0.989 29
11 44 Lewis Hamilton 1:30.599 +0.996 27
12 4 Lando Norris 1:30.721 +1.118 27
13 22 Yuki Tsunoda 1:30.776 +1.173 30
14 23 Alexander Albon 1:30.810 +1.207 27
15 20 Kevin Magnussen 1:30.820 +1.217 25
16 24 Guanyu Zhou 1:30.837 +1.234 27
17 21 Nyck de Vries 1:30.921 +1.318 29
18 2 Logan Sargeant 1:30.959 +1.356 30
19 81 Oscar Piastri 1:30.964 +1.361 26
20 77 Valtteri Bottas 1:31.052 +1.449 30
Classified by best lap · source OpenF1 (2023+)
PosPilotoMejor vueltaDiferenciaVueltas
1 1 Max Verstappen 1:28.485 20
2 11 Sergio Pérez 1:29.098 +0.613 15
3 14 Fernando Alonso 1:29.483 +0.998 21
4 18 Lance Stroll 1:29.509 +1.024 21
5 44 Lewis Hamilton 1:29.568 +1.083 18
6 16 Charles Leclerc 1:29.588 +1.103 16
7 4 Lando Norris 1:29.690 +1.205 18
8 81 Oscar Piastri 1:29.698 +1.213 23
9 10 Pierre Gasly 1:29.701 +1.216 19
10 55 Carlos Sainz 1:29.761 +1.276 16
11 63 George Russell 1:29.811 +1.326 19
12 24 Guanyu Zhou 1:29.917 +1.432 21
13 27 Nico Hülkenberg 1:29.933 +1.448 19
14 31 Esteban Ocon 1:29.953 +1.468 19
15 23 Alexander Albon 1:29.983 +1.498 18
16 2 Logan Sargeant 1:30.035 +1.550 18
17 20 Kevin Magnussen 1:30.131 +1.646 15
18 77 Valtteri Bottas 1:30.317 +1.832 20
19 22 Yuki Tsunoda 1:30.797 +2.312 20
Classified by best lap · source OpenF1 (2023+)
#PilotoTiempo de vueltaVuelta
1 1 Max Verstappen 1:31.906 L50
2 11 Sergio Pérez 1:32.188 L38
3 11 Sergio Pérez 1:32.235 L42
4 14 Fernando Alonso 1:32.240 L50
5 1 Max Verstappen 1:32.249 L35
6 11 Sergio Pérez 1:32.267 L44
7 1 Max Verstappen 1:32.274 L42
8 11 Sergio Pérez 1:32.292 L36
9 11 Sergio Pérez 1:32.294 L34
10 11 Sergio Pérez 1:32.308 L43
Top 10 más rápida race vueltas — #1 is the más rápida lap of la carrera(FL).
Paradas · cómo se comparan
20s 25s 30s mediana 21.2s Charles Leclerc · L16 · 20.026s Sergio Pérez · L18 · 20.715s Pierre Gasly · L14 · 20.719s Carlos Sainz · L15 · 20.760s Esteban Ocon · L16 · 20.762s Max Verstappen · L18 · 20.824s George Russell · L18 · 20.828s Kevin Magnussen · L8 · 20.870s Logan Sargeant · L18 · 21.064s Lewis Hamilton · L18 · 21.102s Nyck de Vries · L17 · 21.116s Lance Stroll · L13 · 21.150s Guanyu Zhou · L18 · 21.282s Lando Norris · L19 · 21.352s Alexander Albon · L17 · 21.397s Yuki Tsunoda · L17 · 21.414s Valtteri Bottas · L9 · 21.505s Nico Hülkenberg · L11 · 21.567s Guanyu Zhou · L11 · 21.703s Valtteri Bottas · L35 · 21.808s Valtteri Bottas · L17 · 22.191s Fernando Alonso · L18 · 26.879s · sanción cumplida Lando Norris · L2 · 29.444s Oscar Piastri · L1 · 31.534s
más rápida 20.026s Charles Leclerc más lenta 31.534s Oscar Piastri sanción cumplida tiempo de paso por el desde el pit lane — un punto por parada
PilotoParadaVueltaTiempoPaso por el desde el pit lane
81 Oscar Piastri 1 1 20:05:36 31.534s
4 Lando Norris 1 2 20:07:18 29.444s
20 Kevin Magnussen 1 8 20:16:55 20.870s
77 Valtteri Bottas 1 9 20:18:38 21.505s
24 Guanyu Zhou 1 11 20:21:41 21.703s
27 Nico Hülkenberg 1 11 20:21:43 21.567s
18 Lance Stroll 1 13 20:24:39 21.150s
10 Pierre Gasly 1 14 20:26:26 20.719s
55 Carlos Sainz 1 15 20:27:49 20.760s
16 Charles Leclerc 1 16 20:29:29 20.026s
31 Esteban Ocon 1 16 20:29:34 20.762s
22 Yuki Tsunoda 1 17 20:31:24 21.414s
23 Alexander Albon 1 17 20:31:32 21.397s
21 Nyck de Vries 1 17 20:31:39 21.116s
77 Valtteri Bottas 2 17 20:32:08 22.191s
14 Fernando Alonso 1 18 20:32:54 26.879s
2 Logan Sargeant 1 18 20:33:55 21.064s
11 Sergio Pérez 1 18 20:32:46 20.715s
1 Max Verstappen 1 18 20:33:15 20.824s
44 Lewis Hamilton 1 18 20:33:24 21.102s
63 George Russell 1 18 20:33:05 20.828s
24 Guanyu Zhou 2 18 20:34:06 21.282s
4 Lando Norris 2 19 20:36:25 21.352s
77 Valtteri Bottas 3 35 21:02:57 21.808s
paradas
SG 10 20 30 40 L50
11
1
M17
H33
1
1
M17
H33
14
1
M17
H33·+1
63
1
M17
H33
44
1
H17
M33
55
1
M14
H36
16
1
S15
H35
31
1
M15
H35
10
1
M13
H37
20
1
M7
H43
22
1
M16
H34
27
1
M10
H40
24
2
M10
H7
M33
21
1
M16
H34
81
1
H50
2
1
H17
M33
4
2
S1
H17
M32
77
3
M8
H8
M18
S15
23
1
M16
H11
18
1
M12
H4
S Soft M Medium H Hard I Intermediate W Wet SC·VSC parada en boxes sanción cumplida en boxes
Carrera · ancho de barra = vueltas con ese juego, ·+N = montado usado con N vueltas previas · fuente OpenF1 (2023+)
Compuestos designados para este Gran Premio
C2 Duro C3 Medio C4 Blando
Pirelli designa tres de sus compuestos secos para cada prueba; cuanto mayor es el número C, más blando es el neumático. Documento FIA ↗
Más puestos ganados en pista
2
+13
P20→P16
1
+11
P15→P2
21
+11
P18→P14
20
+8
P13→P10
22
+8
P16→P11
81
+8
P8→P15
23
+8
P17→P—
24
+7
P11→P13
Más puestos perdidos
Alexander Albon −11 Guanyu Zhou −10 Logan Sargeant −9
Carrera · Suma de posiciones ganadas en pista vuelta a vuelta — se excluyen la vuelta de salida y las vueltas de boxes propias. Datos de vueltas de carrera desde 1996.
PilotoTipoVueltaCumplidaImpuestaMotivo
16 Charles Leclerc Sanción de parrilla ▼10 (P2 → P12)
▼10 (P2 → P12)
14 Fernando Alonso Time penalty 2 18 +5s INCORRECT STARTING LOCATION
Vuelta 2 · Cumplida 18 · +5s INCORRECT STARTING LOCATION
14 Fernando Alonso Time penalty 50 Tras la carrera +10s SERVING PENALTY INCORRECTLY
Vuelta 50 · Cumplida Tras la carrera · +10s SERVING PENALTY INCORRECTLY
44 Lewis Hamilton Black-and-white flag warning 9 WEAVING ON STRAIGHT
Vuelta 9 WEAVING ON STRAIGHT
55 Carlos Sainz Black-and-white flag warning 24 WEAVING ON STRAIGHT
Vuelta 24 WEAVING ON STRAIGHT
Vuelta = vuelta en que se impuso la sanción · Cumplida = vuelta en que se cumplió en boxes (en blanco: se sumó al tiempo de carrera)
Time, drive-through and stop-go penalties come from race control messages (OpenF1, 2023+). Parrilla penalties never appear there — the stewards publish them as documents after the session — so they are worked back from the starting grid against the clasificación classification, which gives places actually lost rather than the figure written in the decision.
PilotoTipoVueltaCumplidaImpuestaMotivo
14 Fernando Alonso Black-and-white flag warning FAILING TO FOLLOW RACE DIRECTORS INSTRUCTIONS
FAILING TO FOLLOW RACE DIRECTORS INSTRUCTIONS
22 Yuki Tsunoda Black-and-white flag warning FAILING TO FOLLOW RACE DIRECTORS INSTRUCTIONS
FAILING TO FOLLOW RACE DIRECTORS INSTRUCTIONS
Vuelta = vuelta en que se impuso la sanción · Cumplida = vuelta en que se cumplió en boxes (en blanco: se sumó al tiempo de carrera)
Time, drive-through and stop-go penalties come from race control messages (OpenF1, 2023+). Parrilla penalties never appear there — the stewards publish them as documents after the session — so they are worked back from the starting grid against the clasificación classification, which gives places actually lost rather than the figure written in the decision.
PilotoTipoVueltaCumplidaImpuestaMotivo
21 Nyck de Vries Black-and-white flag warning CROSSING THE LINE AT PIT ENTRY
CROSSING THE LINE AT PIT ENTRY
Vuelta = vuelta en que se impuso la sanción · Cumplida = vuelta en que se cumplió en boxes (en blanco: se sumó al tiempo de carrera)
Time, drive-through and stop-go penalties come from race control messages (OpenF1, 2023+). Parrilla penalties never appear there — the stewards publish them as documents after the session — so they are worked back from the starting grid against the clasificación classification, which gives places actually lost rather than the figure written in the decision.
PilotoTipoVueltaCumplidaImpuestaMotivo
4 Lando Norris Black-and-white flag warning FAILING TO FOLLOW RACE DIRECTORS INSTRUCTIONS
FAILING TO FOLLOW RACE DIRECTORS INSTRUCTIONS
Vuelta = vuelta en que se impuso la sanción · Cumplida = vuelta en que se cumplió en boxes (en blanco: se sumó al tiempo de carrera)
Time, drive-through and stop-go penalties come from race control messages (OpenF1, 2023+). Parrilla penalties never appear there — the stewards publish them as documents after the session — so they are worked back from the starting grid against the clasificación classification, which gives places actually lost rather than the figure written in the decision.
Decisiones de los comisarios sin sanción en la tabla anterior
PilotoAsuntoDocumento FIA
2 Logan Sargeant Failing to set a time within 107% Abrir ↗
The sanction itself — fine, reprimand, licence points, or no further action — is written inside the PDF, which we do not read yet. The document link is the source of record.
DocTítuloAsuntoPublished(CET)
Event Notes - Circuito Map ↗ 2023-03-15 14:31
2023-03-15 14:31 CET
Post-Carrera Checks on Car 63, Bahrain GP ↗ 63 George Russell 2023-03-15 15:52
63 George Russell 2023-03-15 15:52 CET
Carrera Director's Event Notes ↗ 2023-03-16 14:23
2023-03-16 14:23 CET
Event Notes - Pirelli Preview Pit Lane Drawing and Red Zone ↗ 2023-03-16 14:42
2023-03-16 14:42 CET
Car Display Procedure ↗ 2023-03-17 08:50
2023-03-17 08:50 CET
PU elements usados per driver up to now ↗ 2023-03-17 10:21
2023-03-17 10:21 CET
RNCs usados per driver up to now ↗ 2023-03-17 10:22
2023-03-17 10:22 CET
Event Notes - Circuito Map v2 and Red Zone v2 ↗ 2023-03-17 10:30
2023-03-17 10:30 CET
Self scrutineering ↗ 2023-03-17 12:29
2023-03-17 12:29 CET
RNCs usados per driver up to now ↗ 2023-03-17 12:29
2023-03-17 12:29 CET
Entry List ↗ 2023-03-17 12:30
2023-03-17 12:30 CET
Carrera Director's Event Notes V2 ↗ 2023-03-17 12:45
2023-03-17 12:45 CET
Event Notes - Circuito Map V3 ↗ 2023-03-17 14:14
2023-03-17 14:14 CET
Offence - Mercedes - Inaccurate Scrutineering Form ↗ 2023-03-17 14:27
2023-03-17 14:27 CET
Summons - Mercedes - Inaccurate Self Scrutineering Form ↗ 2023-03-17 14:27
2023-03-17 14:27 CET
New RNCs for this Competition ↗ 2023-03-17 14:42
2023-03-17 14:42 CET
New PU elements for this Competition ↗ 2023-03-17 14:42
2023-03-17 14:42 CET
Offence - Car 16 - PU elements ↗ 16 Charles Leclerc 2023-03-17 15:08
16 Charles Leclerc 2023-03-17 15:08 CET
Event Notes - Circuito Map V4 ↗ 2023-03-17 15:12
2023-03-17 15:12 CET
P1 Classification ↗ 2023-03-17 16:05
2023-03-17 16:05 CET
Entry List V2 ↗ 2023-03-17 17:48
2023-03-17 17:48 CET
P2 Classification ↗ 2023-03-17 19:20
2023-03-17 19:20 CET
Carrera Director's Note - SC2-SC1 Time ↗ 2023-03-17 20:10
2023-03-17 20:10 CET
Carrera Director's Note - P3 Neumáticos ↗ 2023-03-17 20:15
2023-03-17 20:15 CET
P1 and P2 scrutineering ↗ 2023-03-17 21:33
2023-03-17 21:33 CET
Event Notes - Pirelli Preview v2 ↗ 2023-03-18 10:15
2023-03-18 10:15 CET
Curfew ↗ 2023-03-18 11:47
2023-03-18 11:47 CET
Carrera Director's Event Notes V3 ↗ 2023-03-18 12:10
2023-03-18 12:10 CET
New RNCs for this Competition ↗ 2023-03-18 14:59
2023-03-18 14:59 CET
Post-Clasificación Procedure ↗ 2023-03-18 15:16
2023-03-18 15:16 CET
P3 Classification ↗ 2023-03-18 15:50
2023-03-18 15:50 CET
New PU elements for this Competition ↗ 2023-03-18 18:04
2023-03-18 18:04 CET
Provisional Clasificación Classification ↗ 2023-03-18 19:21
2023-03-18 19:21 CET
Clasificación Deleted Vuelta Times - Double Yellow ↗ 2023-03-18 20:00
2023-03-18 20:00 CET
Clasificación Deleted Vuelta Times ↗ 2023-03-18 20:00
2023-03-18 20:00 CET
Decision - Car 2 - Failing to set a time within 107% ↗ 2 Logan Sargeant 2023-03-18 20:32
2 Logan Sargeant 2023-03-18 20:32 CET
Provisional Starting Parrilla ↗ 2023-03-18 22:35
2023-03-18 22:35 CET
Final Clasificación Classification ↗ 2023-03-18 22:35
2023-03-18 22:35 CET
Pre-Carrera Procedure ↗ 2023-03-19 14:55
2023-03-19 14:55 CET
Post-Carrera Procedure ↗ 2023-03-19 15:00
2023-03-19 15:00 CET
Final Starting Parrilla ↗ 2023-03-19 16:00
2023-03-19 16:00 CET
Offence - Car 14 - Incorrect Starting Ubicación ↗ 14 Fernando Alonso 2023-03-19 19:36
14 Fernando Alonso 2023-03-19 19:36 CET
Provisional Carrera Classification ↗ 2023-03-19 20:01
2023-03-19 20:01 CET
Carrera Deleted Vuelta Times ↗ 2023-03-19 20:10
2023-03-19 20:10 CET
Carrera scrutineering ↗ 2023-03-19 22:02
2023-03-19 22:02 CET
Offence - Car 14 - Failure to Serve a Penalty ↗ 14 Fernando Alonso 2023-03-19 22:37
14 Fernando Alonso 2023-03-19 22:37 CET
Summons - Aston Martin - Right of Review ↗ 2023-03-19 22:51
2023-03-19 22:51 CET
Decision - Car 14 - Right of Review ↗ 14 Fernando Alonso 2023-03-19 23:03
14 Fernando Alonso 2023-03-19 23:03 CET
Final Carrera Classification ↗ 2023-03-19 23:15
2023-03-19 23:15 CET
Campeonato Puntos ↗ 2023-03-19 23:20
2023-03-19 23:20 CET
FIA official decisions and documents (fia.com) · PDF original PDF links
Record Basis · Calculation basis
Carrera order is the final classification(post-race penalties applied) · clasificación session data 2003+ · lap times 1996+ · pit stops 2012+ (pit-lane transit, not stationary time) · Abandono = Finished(Finished·+N Vueltas) non-Finished statuses
Fuentes de datos: Jolpica-F1 (Ergast compatible API) · weather·Dirección de carrera OpenF1 (2023+) · Last fetched: 2026-09-05 23:09